loading
|

MIDAS 5 DEB, 18603

Orbit data source: Space-Track

MIDAS 5 DEB, 18603 is space debris originally from a launch on Mon, 09 Apr 1962 UTC via an ATLAS AGENA B launch vehicle from the Air Force Western Test Range (AFWTR). Debris objects in space refer to the collection of defunct objects orbiting the Earth. Examples of debris include non-operational satellites, rocket bodies, and fragments generated from explosions, collisions, or faulty payload assembly.

Loading next visibility...
Loading greatness...
MIDAS 5 DEB details
Identifier
18603, 1962-010G
Orbit
Active
Last TLE update3 weeks ago
Origin
Flag of USUSAF SSD (US)
ManufacturerMIT-LL
MissionSpacecraft
Bus & MotorWESTFORD DRAG, Unknown motor
Mass~1 kg wet, ~1 kg dry
Launch date (UTC)
1962-04-09 (62 years ago)
Launch vehicle
ATLAS AGENA B
Launch site
Air Force Western Test Range (AFWTR)
Object type
Payload
Rocket body
Debris
Shape & HBRCyl, 0.5 m
Radar Cross Section0.094 m², Medium (>0.1 m² and < 1m²)

Expand to show TLE details & history

TLE from 3 weeks ago
0 MIDAS 5 DEB
1 18603U 62010G   24261.89556769 -.00000003  00000-0 -17423-2 0  9991
2 18603  86.6688  58.1588 0289118 124.5851  32.4366  9.41012180318879
Epoch: 2024-09-17T21:29Z
Definitive object data (Epoch: 2024-09-17T21:29:37.048Z)
Latitude21.11446°
Longitude-82.83168°
Altitude2,872.049 km
Speed6.645 km/s
True Right ascension15h 47m 30s
True Declination21° 01' 32"
Sunlit
Object was in daylight at TLE epoch
Predictive object data (real-time)
Latitude-62.74631°
Longitude89.37957°
Altitude3,387.42 km
Speed6.3 km/s
Apparent Right ascension03h 28m 49s
Apparent Declination-53° 39' 21"
Sunlit
Object is in daylight
Predictive observer data (real-time)
Local Sidereal Time15:40:13
Azimuth172.941° S
Elevation-76.125°
Doppler factor1
Orbital elements
Apogee3,370.515 km
Perigee2,822.652 km
Semi-major axis9,474.721 km
Eccentricity0.0289118
Inclination86.6688°
RAAN58.1588°
Arg. of periapsis124.5851°
True anomaly34.26913°
Mean anomaly32.4366°
Eccentric anomaly33.34721°
Mean motion2.35339 °/min
BSTAR-0.0017423
Period152.97 mins
No data available

MIDAS 5 DEB Visibility forecast

Observer location: 39.9160978°, -105.1181434

MIDAS 5 DEB is not visible in the next 10 days
Span
Click to sort rows by Start time (UTC) header in descending order
Start Az.
Max El. time (UTC)
Max El. Az.
Max El.
End time (UTC)
End Az.